• în România
  • Lista ţărilor
  • Pe 7 zile
  • Temperatura apei
  • Hartă satelitară
  • Meteo pe hartă
  • Widget-uri
  • user-avatar
    Intrare

    Meteo pe oră la Sisak

    Astăzi, 21 Octombrie, Sâmbătă

    Timp Temperatura Precipitaţii Vânt Presiune Umiditate
    00:00 +13°C° 0 mm 1 m/s 756 mmHg 90%
    01:00 +13°C° 0 mm 1 m/s 756 mmHg 92%
    02:00 +12°C° 0 mm 1 m/s 756 mmHg 92%
    03:00 +12°C° 0 mm 1 m/s 756 mmHg 92%
    04:00 +12°C° 0 mm 1 m/s 756 mmHg 93%
    05:00 +12°C° 0 mm 1 m/s 756 mmHg 92%
    06:00 +12°C° 0 mm 1 m/s 756 mmHg 91%
    07:00 +12°C° 0 mm 1 m/s 756 mmHg 90%
    08:00 +14°C° 0 mm 1 m/s 756 mmHg 80%
    09:00 +18°C° 0 mm 1 m/s 756 mmHg 70%
    10:00 +20°C° 0 mm 1 m/s 756 mmHg 60%
    11:00 +21°C° 0 mm 1 m/s 756 mmHg 55%
    12:00 +21°C° 0 mm 2 m/s 755 mmHg 49%
    13:00 +23°C° 0 mm 2 m/s 755 mmHg 44%
    14:00 +23°C° 0 mm 1 m/s 755 mmHg 48%
    15:00 +22°C° 0 mm 1 m/s 754 mmHg 53%
    16:00 +21°C° 0 mm 1 m/s 754 mmHg 57%
    17:00 +20°C° 0 mm 1 m/s 754 mmHg 62%
    18:00 +18°C° 0 mm 1 m/s 754 mmHg 66%
    19:00 +15°C° 0 mm 1 m/s 755 mmHg 70%
    20:00 +15°C° 0 mm 1 m/s 755 mmHg 73%
    21:00 +14°C° 0 mm 1 m/s 755 mmHg 77%
    22:00 +14°C° 0 mm 1 m/s 755 mmHg 80%
    23:00 +14°C° 0 mm 1 m/s 754 mmHg 83%

    Mâine, 22 Octombrie, Duminică

    Timp Temperatura Precipitaţii Vânt Presiune Umiditate
    00:00 +13°C° 0 mm 1 m/s 754 mmHg 85%
    01:00 +13°C° 0 mm 1 m/s 754 mmHg 88%
    02:00 +13°C° 0 mm 1 m/s 754 mmHg 89%
    03:00 +12°C° 0 mm 1 m/s 754 mmHg 90%
    04:00 +12°C° 0 mm 1 m/s 753 mmHg 91%
    05:00 +12°C° 0 mm 1 m/s 753 mmHg 91%
    06:00 +12°C° 0 mm 1 m/s 753 mmHg 90%
    07:00 +12°C° 0 mm 1 m/s 753 mmHg 90%
    08:00 +15°C° 0 mm 1 m/s 753 mmHg 82%
    09:00 +16°C° 0 mm 0 m/s 753 mmHg 74%
    10:00 +18°C° 0 mm 0 m/s 753 mmHg 66%
    11:00 +20°C° 0 mm 1 m/s 752 mmHg 64%
    12:00 +21°C° 0 mm 1 m/s 752 mmHg 63%
    13:00 +21°C° 0 mm 1 m/s 751 mmHg 61%
    14:00 +19°C° 0,6 mm 2 m/s 751 mmHg 68%
    15:00 +18°C° 0,6 mm 2 m/s 751 mmHg 74%
    16:00 +16°C° 0,6 mm 2 m/s 750 mmHg 81%
    17:00 +14°C° 1,2 mm 3 m/s 750 mmHg 83%
    18:00 +13°C° 1,2 mm 4 m/s 750 mmHg 86%
    19:00 +12°C° 1,2 mm 4 m/s 751 mmHg 89%
    20:00 +11°C° 2,7 mm 4 m/s 751 mmHg 89%
    21:00 +11°C° 2,7 mm 4 m/s 751 mmHg 90%
    22:00 +10°C° 2,7 mm 4 m/s 751 mmHg 91%
    23:00 +10°C° 1,6 mm 4 m/s 751 mmHg 91%

    Poimâine, 23 Octombrie, Luni

    Timp Temperatura Precipitaţii Vânt Presiune Umiditate
    00:00 +8°C° 1,6 mm 4 m/s 751 mmHg 90%
    01:00 +8°C° 1,6 mm 4 m/s 751 mmHg 90%
    02:00 +9°C° 0,3 mm 3 m/s 751 mmHg 89%
    03:00 +9°C° 0,3 mm 3 m/s 750 mmHg 89%
    04:00 +9°C° 0,3 mm 2 m/s 750 mmHg 88%
    05:00 +9°C° 0,1 mm 2 m/s 750 mmHg 88%
    06:00 +9°C° 0,1 mm 2 m/s 750 mmHg 87%
    07:00 +9°C° 0,1 mm 2 m/s 751 mmHg 86%
    08:00 +10°C° 0,1 mm 3 m/s 751 mmHg 82%
    09:00 +10°C° 0,1 mm 3 m/s 751 mmHg 78%
    10:00 +11°C° 0,1 mm 4 m/s 751 mmHg 74%
    11:00 +12°C° 0,1 mm 4 m/s 751 mmHg 69%
    12:00 +12°C° 0,1 mm 5 m/s 751 mmHg 63%
    13:00 +13°C° 0,1 mm 5 m/s 751 mmHg 58%
    14:00 +13°C° 0,1 mm 4 m/s 751 mmHg 59%
    15:00 +12°C° 0,1 mm 4 m/s 751 mmHg 61%
    16:00 +12°C° 0,1 mm 3 m/s 751 mmHg 63%
    17:00 +11°C° 0 mm 3 m/s 752 mmHg 65%
    18:00 +12°C° 0 mm 2 m/s 752 mmHg 66%
    19:00 +10°C° 0 mm 2 m/s 752 mmHg 68%
    20:00 +10°C° 0 mm 2 m/s 752 mmHg 69%
    21:00 +9°C° 0 mm 2 m/s 753 mmHg 71%
    22:00 +9°C° 0 mm 3 m/s 753 mmHg 72%
    23:00 +9°C° 0 mm 3 m/s 753 mmHg 73%

    24 Octombrie, Marţi

    Timp Temperatura Precipitaţii Vânt Presiune Umiditate
    00:00 +8°C° 0 mm 3 m/s 753 mmHg 74%
    01:00 +8°C° 0 mm 3 m/s 753 mmHg 75%
    02:00 +8°C° 0 mm 3 m/s 753 mmHg 75%
    03:00 +8°C° 0 mm 3 m/s 753 mmHg 75%
    04:00 +8°C° 0 mm 3 m/s 753 mmHg 75%
    05:00 +7°C° 0,1 mm 4 m/s 754 mmHg 74%
    06:00 +8°C° 0,1 mm 4 m/s 754 mmHg 73%
    07:00 +8°C° 0,1 mm 4 m/s 754 mmHg 72%
    08:00 +10°C° 0 mm 5 m/s 755 mmHg 68%
    09:00 +11°C° 0 mm 6 m/s 755 mmHg 63%
    10:00 +12°C° 0 mm 8 m/s 755 mmHg 59%
    11:00 +14°C° 0 mm 7 m/s 755 mmHg 57%
    12:00 +14°C° 0 mm 7 m/s 755 mmHg 55%
    13:00 +15°C° 0 mm 7 m/s 755 mmHg 53%
    14:00 +15°C° 0 mm 7 m/s 756 mmHg 55%
    15:00 +14°C° 0 mm 6 m/s 756 mmHg 57%
    16:00 +14°C° 0 mm 5 m/s 756 mmHg 59%
    17:00 +13°C° 0 mm 5 m/s 757 mmHg 63%
    18:00 +11°C° 0 mm 4 m/s 757 mmHg 67%
    19:00 +10°C° 0 mm 4 m/s 758 mmHg 71%
    20:00 +10°C° 0 mm 4 m/s 758 mmHg 73%
    21:00 +10°C° 0 mm 4 m/s 759 mmHg 75%
    22:00 +8°C° 0 mm 4 m/s 759 mmHg 77%
    23:00 +9°C° 0 mm 3 m/s 759 mmHg 79%

    25 Octombrie, Miercuri

    Timp Temperatura Precipitaţii Vânt Presiune Umiditate
    00:00 +8°C° 0 mm 3 m/s 760 mmHg 81%
    01:00 +8°C° 0 mm 2 m/s 760 mmHg 84%
    02:00 +7°C° 0 mm 2 m/s 760 mmHg 85%
    03:00 +7°C° 0 mm 2 m/s 760 mmHg 87%
    04:00 +7°C° 0 mm 1 m/s 760 mmHg 89%
    05:00 +7°C° 0 mm 1 m/s 760 mmHg 90%
    06:00 +7°C° 0 mm 1 m/s 761 mmHg 91%
    07:00 +7°C° 0 mm 1 m/s 761 mmHg 92%
    08:00 +8°C° 0 mm 2 m/s 761 mmHg 83%
    09:00 +10°C° 0 mm 2 m/s 761 mmHg 74%
    10:00 +12°C° 0 mm 3 m/s 761 mmHg 65%
    11:00 +13°C° 0 mm 3 m/s 761 mmHg 62%
    12:00 +14°C° 0 mm 3 m/s 761 mmHg 58%
    13:00 +16°C° 0 mm 3 m/s 760 mmHg 54%
    14:00 +15°C° 0 mm 2 m/s 760 mmHg 58%
    15:00 +15°C° 0 mm 2 m/s 760 mmHg 61%
    16:00 +14°C° 0 mm 1 m/s 760 mmHg 64%
    17:00 +13°C° 0 mm 1 m/s 761 mmHg 69%
    18:00 +11°C° 0 mm 1 m/s 761 mmHg 73%
    19:00 +9°C° 0 mm 0 m/s 762 mmHg 78%
    20:00 +9°C° 0 mm 0 m/s 762 mmHg 79%
    21:00 +8°C° 0 mm 0 m/s 762 mmHg 80%
    22:00 +8°C° 0 mm 0 m/s 762 mmHg 81%
    23:00 +8°C° 0 mm 0 m/s 762 mmHg 82%

    26 Octombrie, Joi

    Timp Temperatura Precipitaţii Vânt Presiune Umiditate
    00:00 +8°C° 0 mm 0 m/s 762 mmHg 83%
    01:00 +8°C° 0 mm 0 m/s 762 mmHg 84%
    02:00 +7°C° 0 mm 0 m/s 762 mmHg 85%
    03:00 +7°C° 0 mm 0 m/s 762 mmHg 86%
    04:00 +7°C° 0 mm 0 m/s 762 mmHg 88%
    05:00 +7°C° 0 mm 0 m/s 762 mmHg 88%
    06:00 +7°C° 0 mm 0 m/s 762 mmHg 88%
    07:00 +8°C° 0 mm 1 m/s 762 mmHg 88%
    08:00 +10°C° 0 mm 1 m/s 762 mmHg 79%
    09:00 +12°C° 0 mm 1 m/s 762 mmHg 71%
    10:00 +15°C° 0 mm 1 m/s 762 mmHg 63%
    11:00 +16°C° 0 mm 1 m/s 762 mmHg 61%
    12:00 +18°C° 0 mm 1 m/s 762 mmHg 58%
    13:00 +19°C° 0 mm 1 m/s 762 mmHg 56%
    14:00 +18°C° 0 mm 1 m/s 761 mmHg 60%
    15:00 +18°C° 0 mm 1 m/s 761 mmHg 65%
    16:00 +15°C° 0 mm 0 m/s 761 mmHg 69%
    17:00 +14°C° 0 mm 0 m/s 761 mmHg 74%
    18:00 +12°C° 0 mm 0 m/s 761 mmHg 79%
    19:00 +11°C° 0 mm 0 m/s 761 mmHg 83%
    20:00 +12°C° 0 mm 1 m/s 762 mmHg 85%
    21:00 +11°C° 0 mm 1 m/s 762 mmHg 86%
    22:00 +11°C° 0 mm 1 m/s 762 mmHg 88%
    23:00 +11°C° 0 mm 1 m/s 762 mmHg 89%
    Arată mai mult